Location: Perryvale
(54.4667°N, 113.3833°W)
Time: 19:22:14
(UTC+00:00)

Transit 2A - Pass Details

Date: 24 May 2024
Orbit: 592 x 959 km, 66.7° (Epoch: 19 June)

Event Time Altitude Azimuth Distance (km) Brightness Sun altitude
Exits shadow 07:01:12 - 232° (SW) 2,662 8.5 -14.4°
Reaches altitude 10° 07:02:36 10° 234° (SW) 2,118 8.0 -14.4°
Maximum altitude 07:07:23 66° 317° (NW) 799 6.3 -14.5°
Drops below altitude 10° 07:12:46 10° 40° (NE) 2,368 9.2 -14.6°
Sets 07:15:22 0° 43° (NE) 3,364 10.0 -14.6°
